Simultaneous Nadir Overpasses (SNOs) Predictions

Prediction of SNOs near US between AQUA and NPP Satellite Orbit:

Table of predicted SNOs near US for the next 10.0 days since TLE Epoch: 8/31/2012
Index Date (AQUA) Time (AQUA) AQUA Lat,Lon Date (NPP) Time (NPP) NPP Lat,Lon Distance(km) Time Diff (sec)
1 09/02/2012 07:19:00 48.60, -76.58 09/02/2012 07:18:37 48.98, -78.78 166.63 23
2 09/02/2012 08:57:31 49.90,-100.76 09/02/2012 08:59:41 50.47,-103.49 204.27 130
3 09/04/2012 18:16:46 49.97, -80.20 09/04/2012 18:08:29 49.68, -81.70 112.25 497
4 09/04/2012 19:55:39 49.96,-104.92 09/04/2012 19:49:57 49.57,-107.03 157.50 342
5 09/04/2012 21:30:48 36.61,-125.00 09/04/2012 21:27:35 36.14,-127.52 231.48 193
6 09/10/2012 06:31:37 40.86, -66.98 09/10/2012 06:30:02 41.24, -69.06 179.45 95
7 09/10/2012 08:07:58
